DELTA 1 DEB, 7051

Orbit data source: Space-Track

DELTA 1 DEB, 7051 is space debris in SSO originally from a launch on Tue, 06 Nov 1973 UTC launched from the Air Force Western Test Range (AFWTR). Debris objects in space refer to the collection of defunct objects orbiting the Earth. Examples of debris include non-operational satellites, rocket bodies, and fragments generated from explosions, collisions, or faulty payload assembly.

Loading next visibility...
Identifier
7051, 1973-086AT
Orbit
SSO
Country
Flag of USUS
Related business
Manufacturer
Unknown
Mission
Spacecraft
Bus & Motor
Unknown
Mass
Unknown
Launch date (UTC)
1973-11-06 (52 years ago)
Launch vehicle
Unknown
Launch site
Air Force Western Test Range (AFWTR)
Object type
Payload
Rocket body
Debris
Shape & HBR
Unknown shape, 0.1 m
Radar Cross Section
Medium (>0.1 m² and <1 m²)

Expand to show TLE details & history
Last TLE update: 11 hours ago

TLE from 11 hours ago
0 DELTA 1 DEB
1 07051U 73086AT  26034.54371733 -.00000018  00000-0  24673-3 0  9990
2 07051 102.5305  57.9480 0065696 335.8092 177.8475 12.28978584336292
Epoch: 2026-02-03T13:02Z
TLE epoch observation values (Epoch: 2026-02-03T13:02:57.177Z)
Latitude
25.67354°
Longitude
-85.41007°
Altitude
1,608.514 km
Speed
7.045 km/s
True Right ascension
16h 16m 12s
True Declination
25° 33' 14"
Sunlit
Object was in daylight at epoch
Visualization orbit readout
Latitude
Unknown
Longitude
Unknown
Altitude
Unknown
Speed
Unknown
Apparent Right ascension
Unknown
Apparent Declination
Unknown
Sunlit
N/A
Visualization observer readout
Local Sidereal Time
01:45:32
Azimuth
Unknown
Elevation
Unknown
Doppler factor
Unknown
Orbital elements
Apogee altitude
1,603.387 km
Perigee altitude
1,499.201 km
Semi-major axis
7,929.431 km
Eccentricity
0.00657
Inclination
102.5305°
RAAN
57.948°
Arg. of periapsis
335.8092°
True anomaly
177.87555°
Mean anomaly
177.8475°
Eccentric anomaly
177.86155°
Mean motion
3.07383 °/min
Orbital period
117.12 mins
BSTAR
0.00024673
Loading maneuver chart data...
Computing Atmospheric mass density...
Loading historical data...
Loading historical data...
Loading historical data...
Loading historical data...
Loading historical data...
Loading historical data...
Loading historical data...

Documentation

Showing up to 5 results
|